| time (UTC) | temp F | wind direction | speed knots | gust knots | rain 1hr in | rain 24hr in | rain mn in | humidity % | barometer mb |
| 20260906223045 | 49 | 236 | 0.0 | 4.3 | 0.00 | 0.00 | 0.00 | 89 | 1023.6 |
| 20260906221545 | 49 | 277 | 0.0 | 2.6 | 0.00 | 0.00 | 0.00 | 91 | 1023.9 |
| 20260906220114 | 48 | 251 | 0.0 | 0.0 | 0.00 | 0.00 | 0.00 | 92 | 1023.8 |
| 20260906214538 | 47 | 315 | 0.0 | 3.5 | 0.00 | 0.00 | 0.00 | 92 | 1023.7 |
| 20260906213034 | 46 | 283 | 0.0 | 0.0 | 0.00 | 0.00 | 0.00 | 92 | 1023.8 |
| 20260906211537 | 46 | 297 | 0.0 | 0.0 | 0.00 | 0.00 | 0.00 | 92 | 1023.8 |
| 20260906210051 | 46 | 282 | 0.0 | 0.0 | 0.00 | 0.00 | 0.00 | 92 | 1023.8 |
| 20260906204530 | 46 | 218 | 0.0 | 0.0 | 0.00 | 0.00 | 0.00 | 91 | 1023.8 |
| 20260906203034 | 46 | 335 | 0.0 | 0.0 | 0.00 | 0.00 | 0.00 | 91 | 1023.5 |
| 20260906201525 | 46 | 335 | 0.0 | 0.0 | 0.00 | 0.00 | 0.00 | 92 | 1023.3 |
| 20260906200037 | 46 | 335 | 0.0 | 0.0 | 0.00 | 0.00 | 0.00 | 92 | 1023.2 |
| 20260906194523 | 46 | 335 | 0.0 | 0.0 | 0.00 | 0.00 | 0.00 | 92 | 1023.3 |
| 20260906193023 | 46 | 334 | 0.0 | 0.0 | 0.00 | 0.00 | 0.00 | 92 | 1023.3 |
| 20260906191521 | 46 | 334 | 0.0 | 0.0 | 0.00 | 0.00 | 0.00 | 92 | 1023.3 |
| 20260906190020 | 46 | 325 | 0.0 | 0.0 | 0.00 | 0.00 | 0.00 | 92 | 1023.3 |
| 20260906184520 | 46 | 249 | 0.0 | 0.0 | 0.00 | 0.00 | 0.00 | 92 | 1023.4 |
| 20260906183033 | 45 | 282 | 0.0 | 0.0 | 0.00 | 0.00 | 0.00 | 92 | 1023.3 |
| 20260906181525 | 45 | 280 | 0.0 | 0.0 | 0.00 | 0.00 | 0.00 | 91 | 1023.4 |
| 20260906180118 | 46 | 277 | 0.0 | 0.0 | 0.00 | 0.00 | 0.00 | 91 | 1023.3 |
| 20260906174529 | 46 | 303 | 0.0 | 0.0 | 0.00 | 0.00 | 0.00 | 91 | 1022.9 |
| 20260906173018 | 45 | 307 | 0.0 | 0.0 | 0.00 | 0.00 | 0.00 | 91 | 1022.9 |
| 20260906171512 | 42 | 336 | 0.0 | 0.0 | 0.00 | 0.00 | 0.00 | 91 | 1023.1 |
| 20260906170010 | 41 | 336 | 0.0 | 0.0 | 0.00 | 0.00 | 0.00 | 92 | 1023.2 |
| 20260906164517 | 40 | 336 | 0.0 | 0.0 | 0.00 | 0.00 | 0.00 | 92 | 1023.1 |
| 20260906163014 | 41 | 336 | 0.0 | 0.0 | 0.00 | 0.00 | 0.00 | 92 | 1023.3 |
| 20260906161505 | 41 | 335 | 0.0 | 0.0 | 0.00 | 0.00 | 0.00 | 92 | 1023.2 |
| 20260906160002 | 42 | 335 | 0.0 | 0.0 | 0.00 | 0.00 | 0.00 | 92 | 1023.4 |
| 20260906154501 | 42 | 335 | 0.0 | 0.0 | 0.00 | 0.00 | 0.00 | 92 | 1023.5 |
| 20260906153101 | 42 | 336 | 0.0 | 0.0 | 0.00 | 0.00 | 0.00 | 92 | 1023.6 |
| 20260906151555 | 43 | 335 | 0.0 | 0.0 | 0.00 | 0.00 | 0.00 | 92 | 1023.9 |
| 20260906144602 | 44 | 336 | 0.0 | 0.0 | 0.00 | 0.00 | 0.00 | 92 | 1024.0 |
| 20260906143050 | 44 | 336 | 0.0 | 0.0 | 0.00 | 0.00 | 0.00 | 92 | 1024.0 |
| 20260906141549 | 44 | 335 | 0.0 | 0.0 | 0.00 | 0.00 | 0.00 | 92 | 1024.1 |
| 20260906140045 | 44 | 335 | 0.0 | 0.0 | 0.00 | 0.00 | 0.00 | 91 | 1023.8 |
| 20260906134543 | 46 | 335 | 0.0 | 0.0 | 0.00 | 0.00 | 0.00 | 91 | 1023.9 |
| 20260906133043 | 47 | 336 | 0.0 | 0.0 | 0.00 | 0.00 | 0.00 | 91 | 1023.8 |
| 20260906131543 | 48 | 336 | 0.0 | 0.0 | 0.00 | 0.00 | 0.00 | 90 | 1023.8 |
| 20260906130048 | 48 | 335 | 0.0 | 0.0 | 0.00 | 0.00 | 0.00 | 91 | 1023.7 |
| 20260906124544 | 48 | 295 | 0.0 | 0.0 | 0.00 | 0.04 | 0.00 | 91 | 1023.9 |
| 20260906123042 | 47 | 304 | 0.0 | 0.0 | 0.00 | 0.04 | 0.00 | 92 | 1024.0 |
| 20260906121542 | 46 | 299 | 0.0 | 0.0 | 0.00 | 0.04 | 0.00 | 92 | 1024.0 |
| 20260906120048 | 45 | 347 | 0.0 | 0.0 | 0.00 | 0.04 | 0.00 | 91 | 1024.0 |
| 20260906113037 | 47 | 347 | 0.0 | 0.0 | 0.00 | 0.04 | 0.00 | 90 | 1023.7 |
| 20260906111539 | 48 | 347 | 0.0 | 0.0 | 0.00 | 0.04 | 0.00 | 89 | 1023.5 |
| 20260906110041 | 49 | 85 | 0.0 | 0.0 | 0.00 | 0.04 | 0.00 | 89 | 1023.2 |
| 20260906104532 | 49 | 318 | 0.0 | 0.9 | 0.00 | 0.04 | 0.00 | 88 | 1023.0 |
| 20260906103031 | 49 | 275 | 0.0 | 0.0 | 0.00 | 0.04 | 0.00 | 88 | 1022.9 |
| 20260906101529 | 49 | 288 | 0.0 | 2.6 | 0.00 | 0.04 | 0.00 | 88 | 1022.7 |
| 20260906100029 | 49 | 326 | 0.0 | 0.0 | 0.00 | 0.04 | 0.00 | 88 | 1022.6 |
| 20260906094535 | 50 | 277 | 0.0 | 0.0 | 0.00 | 0.05 | 0.00 | 87 | 1022.6 |
| 20260906093026 | 50 | 246 | 0.0 | 0.0 | 0.00 | 0.05 | 0.00 | 87 | 1022.5 |
| 20260906091524 | 50 | 328 | 0.0 | 0.0 | 0.00 | 0.05 | 0.00 | 87 | 1022.4 |
| 20260906090024 | 50 | 320 | 0.0 | 0.9 | 0.00 | 0.05 | 0.00 | 87 | 1022.2 |
| 20260906084525 | 51 | 304 | 0.0 | 0.0 | 0.00 | 0.05 | 0.00 | 86 | 1022.1 |
| 20260906083020 | 51 | 274 | 0.0 | 6.1 | 0.00 | 0.05 | 0.00 | 86 | 1021.8 |
| 20260906081536 | 51 | 268 | 0.0 | 0.9 | 0.00 | 0.05 | 0.00 | 85 | 1021.6 |
| 20260906080017 | 52 | 303 | 0.0 | 0.0 | 0.00 | 0.05 | 0.00 | 84 | 1021.5 |
| 20260906074515 | 53 | 289 | 0.0 | 0.0 | 0.00 | 0.08 | 0.00 | 82 | 1021.4 |
| 20260906073012 | 54 | 302 | 0.0 | 7.0 | 0.00 | 0.08 | 0.00 | 79 | 1021.1 |
| 20260906071509 | 55 | 310 | 0.0 | 0.0 | 0.00 | 0.08 | 0.00 | 78 | 1020.7 |
| 20260906070010 | 56 | 308 | 0.0 | 0.0 | 0.00 | 0.08 | 0.00 | 76 | 1020.8 |
| 20260906064509 | 56 | 332 | 0.0 | 6.1 | 0.00 | 0.13 | 0.00 | 75 | 1020.6 |
| 20260906063008 | 56 | 261 | 0.0 | 7.8 | 0.00 | 0.13 | 0.00 | 75 | 1020.4 |
| 20260906061508 | 57 | 283 | 0.0 | 7.8 | 0.00 | 0.13 | 0.00 | 74 | 1020.5 |
| 20260906060006 | 58 | 301 | 0.0 | 5.2 | 0.00 | 0.13 | 0.00 | 72 | 1020.5 |
| 20260906054505 | 58 | 330 | 0.0 | 7.0 | 0.00 | 0.13 | 0.00 | 72 | 1020.6 |
| 20260906053005 | 58 | 279 | 0.0 | 7.0 | 0.00 | 0.13 | 0.00 | 71 | 1020.7 |
| 20260906051503 | 58 | 253 | 0.0 | 1.7 | 0.00 | 0.13 | 0.00 | 71 | 1020.5 |
| 20260906050002 | 58 | 311 | 0.0 | 7.8 | 0.00 | 0.23 | 0.00 | 70 | 1020.2 |
| 20260906044600 | 58 | 239 | 0.0 | 5.2 | 0.00 | 0.23 | 0.00 | 70 | 1020.1 |
| 20260906043158 | 58 | 315 | 0.0 | 4.3 | 0.00 | 0.23 | 0.00 | 71 | 1019.9 |
| 20260906041557 | 57 | 320 | 0.0 | 9.6 | 0.00 | 0.23 | 0.00 | 73 | 1019.9 |
| 20260906040119 | 57 | 282 | 0.0 | 7.8 | 0.00 | 0.23 | 0.00 | 72 | 1019.6 |
| 20260906034602 | 58 | 232 | 0.0 | 7.8 | 0.00 | 0.28 | 0.00 | 72 | 1019.3 |
| 20260906033050 | 57 | 263 | 0.0 | 7.0 | 0.00 | 0.28 | 0.00 | 73 | 1019.3 |
| 20260906031552 | 57 | 322 | 0.0 | 6.1 | 0.00 | 0.28 | 0.00 | 74 | 1019.2 |
| 20260906030047 | 57 | 275 | 0.0 | 8.7 | 0.00 | 0.28 | 0.00 | 73 | 1019.3 |
| 20260906024545 | 57 | 261 | 0.0 | 0.0 | 0.00 | 0.28 | 0.00 | 71 | 1019.2 |
| 20260906023048 | 57 | 239 | 0.0 | 7.8 | 0.00 | 0.28 | 0.00 | 72 | 1019.2 |
| 20260906021540 | 56 | 197 | 0.0 | 2.6 | 0.00 | 0.28 | 0.00 | 73 | 1019.3 |
| 20260906020050 | 56 | 261 | 0.9 | 8.7 | 0.00 | 0.28 | 0.00 | 72 | 1019.3 |
| 20260906014542 | 56 | 326 | 0.0 | 3.5 | 0.00 | 0.28 | 0.00 | 73 | 1019.2 |
| 20260906013038 | 55 | 295 | 0.0 | 7.0 | 0.00 | 0.28 | 0.00 | 74 | 1019.2 |
| 20260906011531 | 55 | 314 | 0.0 | 5.2 | 0.00 | 0.28 | 0.00 | 73 | 1019.2 |
| 20260906010027 | 54 | 306 | 0.0 | 12.2 | 0.00 | 0.28 | 0.00 | 74 | 1019.1 |
| 20260906004524 | 54 | 270 | 1.7 | 8.7 | 0.00 | 0.31 | 0.00 | 74 | 1019.0 |
| 20260906003025 | 53 | 55 | 1.7 | 11.3 | 0.00 | 0.31 | 0.00 | 75 | 1018.7 |
| 20260906001518 | 53 | 12 | 0.0 | 6.1 | 0.00 | 0.31 | 0.00 | 75 | 1018.8 |
| 20260906000016 | 52 | 225 | 0.0 | 6.1 | 0.00 | 0.31 | 0.00 | 76 | 1018.7 |
| 20260905234513 | 52 | 289 | 0.9 | 11.3 | 0.00 | 0.34 | 0.00 | 75 | 1018.6 |
| 20260905233012 | 52 | 239 | 0.0 | 7.0 | 0.00 | 0.34 | 0.00 | 78 | 1018.7 |
| 20260905231507 | 51 | 248 | 0.0 | 8.7 | 0.00 | 0.34 | 0.00 | 77 | 1018.5 |
| 20260905230003 | 50 | 241 | 0.0 | 9.6 | 0.00 | 0.35 | 0.00 | 80 | 1018.5 |
| 20260905224609 | 50 | 259 | 1.7 | 9.6 | 0.00 | 0.35 | 0.00 | 79 | 1018.3 |